Wetbulb
70.28 68.93 68.21 68.30 58.81 59.10 56.79 58.98 62.95 62.30 62.78 65.11 64.39 63.35 62.13 65.36 65.33 60.86 71.07 71.69 73.96 72.04 73.26 74.03 76.17 77.21 77.66 77.39 77.06 76.96 76.51 76.46 76.41 76.20 76.28 76.60 76.60 76.73 76.96 77.08 77.05 77.00 76.56 76.20 75.49 75.39 75.19 75.14 74.86
65.35 66.64 66.33 63.62 55.64 52.92 55.00 58.85 60.32 63.45 64.97 65.94 65.21 65.07 63.95 64.39 69.34 69.08 69.33 72.43 73.70 72.47 72.69 73.16 76.08 77.08 77.43 77.26 76.86 76.68 76.56 76.51 76.38 76.45 76.78 76.63 76.71 76.75 76.73 77.10 77.07 76.95 76.75 76.69 76.20 75.61 75.18 75.06 74.78
65.71 66.69 61.76 58.42 55.12 51.85 53.73 60.07 61.97 63.74 65.64 65.03 64.58 65.80 67.43 66.44 69.70 70.46 71.16 72.98 73.03 72.24 72.46 74.42 76.10 76.71 77.03 77.21 76.88 76.61 76.46 76.46 76.63 76.98 76.68 76.37 76.55 76.58 76.37 76.59 76.55 76.60 76.08 76.08 76.12 76.15 76.49 75.62 74.90
63.37 65.35 62.24 54.99 53.26 56.39 56.79 60.83 62.10 62.40 65.77 66.46 65.73 63.74 69.43 71.45 70.66 72.48 71.94 73.22 72.19 71.31 73.27 75.14 75.93 76.43 76.80 76.93 76.66 76.48 76.58 76.91 76.93 76.83 76.55 76.30 76.22 76.23 76.30 76.06 75.98 75.91 75.62 75.01 75.42 75.88 76.14 75.89 75.35
64.60 60.96 54.57 53.31 53.34 55.69 57.70 62.37 62.19 60.81 63.59 64.60 65.01 64.31 67.73 71.70 73.77 72.87 71.85 72.84 71.62 71.09 73.80 73.72 75.98 76.31 76.76 76.93 76.78 76.76 76.76 77.01 76.83 76.65 76.30 76.07 75.95 76.20 76.07 75.65 75.34 75.20 75.08 74.97 75.07 75.06 75.02 74.64 74.48
56.89 58.80 52.00 50.19 52.56 56.28 58.27 61.25 61.35 61.07 62.56 64.13 63.26 64.35 68.99 72.48 72.60 71.51 72.10 72.31 72.02 73.43 73.26 73.06 75.75 76.03 76.08 76.43 76.46 76.56 76.68 76.78 76.71 76.45 76.12 75.92 75.80 75.72 75.58 75.11 75.03 74.93 74.86 74.98 74.89 74.90 74.97 74.91 74.81
54.69 54.44 51.25 52.03 52.71 54.52 57.31 60.91 59.15 60.11 61.36 62.89 64.94 64.66 69.03 70.83 72.41 71.85 72.02 72.52 71.82 73.83 72.43 72.29 73.16 74.85 75.85 75.93 76.21 76.43 76.43 76.58 76.41 76.11 76.00 75.70 75.52 75.14 74.92 74.63 74.76 74.69 74.89 74.98 74.96 75.03 75.00 75.02 75.10
57.29 55.43 51.59 52.14 51.34 52.57 57.36 59.09 60.75 60.42 62.86 68.04 67.08 64.58 65.52 69.88 72.01 71.82 72.06 71.38 71.48 72.64 71.93 71.41 72.07 72.99 73.25 73.59 75.93 76.06 76.28 76.36 76.26 76.18 75.68 75.25 75.02 74.76 74.47 74.39 74.49 74.57 74.80 74.87 75.06 75.25 75.34 75.41 75.12
59.33 51.71 49.30 51.08 52.51 54.12 57.63 55.88 60.24 61.87 61.42 63.95 66.54 67.35 71.57 72.06 71.51 70.55 70.36 70.29 70.43 71.33 71.28 70.72 70.59 71.26 71.85 71.99 74.15 75.58 75.34 75.58 75.95 75.09 75.18 74.27 71.97 71.78 72.27 73.43 75.18 74.82 74.68 74.85 74.90 74.86 74.96 75.01 74.98
54.85 50.90 51.36 54.99 55.75 54.09 55.92 55.57 56.80 58.95 60.94 61.92 64.77 69.42 71.47 71.48 69.88 69.05 68.95 68.74 69.10 69.70 70.65 70.51 70.47 70.20 70.47 71.46 73.40 73.32 73.56 73.62 73.37 73.04 73.49 72.35 71.87 71.05 71.07 74.03 75.38 75.03 74.86 75.03 75.02 75.55 75.72 75.69 73.24
54.71 50.38 53.46 54.23 54.99 55.57 54.12 54.16 56.15 57.40 57.92 60.89 61.36 66.51 68.80 70.38 69.54 68.53 68.92 69.45 69.03 69.90 70.74 70.39 71.12 71.01 70.00 70.60 72.46 72.39 73.02 73.09 72.83 73.34 73.25 72.08 71.83 72.39 73.04 73.01 72.48 73.34 74.21 72.40 73.48 73.40 73.06 72.02 72.52
51.45 53.14 53.62 54.08 55.04 53.39 52.53 54.25 53.47 54.41 55.53 60.14 62.66 62.15 68.67 68.74 68.79 68.44 67.27 69.11 69.99 69.83 70.58 70.66 71.24 71.28 70.80 72.00 71.67 72.00 72.17 72.71 72.54 73.09 74.50 72.87 72.32 71.05 72.14 73.04 71.46 71.90 71.72 71.88 72.23 72.25 71.95 71.97 72.19
51.28 52.23 53.50 54.01 53.48 53.23 53.62 52.23 52.37 53.18 58.74 61.17 60.25 60.55 61.05 66.71 67.98 69.57 69.74 70.64 72.65 69.33 70.43 70.37 71.14 71.53 72.20 72.27 71.83 71.35 71.78 72.03 72.41 73.05 74.01 73.27 72.50 73.50 72.91 71.46 71.26 71.21 71.68 70.86 72.02 72.25 72.58 70.25 70.21
53.16 52.44 52.29 52.96 53.01 53.01 51.38 51.99 52.97 55.45 61.08 60.42 59.50 59.49 60.45 62.60 67.46 70.05 70.08 70.77 72.28 70.47 70.65 70.43 70.55 72.35 71.77 74.20 71.96 71.02 71.73 72.10 72.88 72.89 73.30 73.77 74.95 74.64 72.24 72.41 72.98 70.50 72.52 72.02 72.31 72.10 69.73 71.59 72.34
52.95 49.93 51.68 51.98 52.97 52.23 53.43 50.06 50.83 59.22 61.68 62.41 61.77 61.01 65.14 65.56 67.53 69.39 70.85 71.88 72.64 73.81 71.14 72.45 71.96 72.41 72.95 74.84 74.49 72.49 71.94 72.07 71.83 72.69 74.11 73.07 73.91 74.88 72.67 72.42 73.06 73.03 73.67 69.75 73.04 72.53 70.60 72.06 72.70
50.26 50.26 46.53 51.30 52.23 52.64 52.17 47.33 56.97 60.72 60.30 62.13 62.67 62.92 66.08 68.68 69.96 70.90 71.16 71.96 71.01 72.91 74.55 74.53 71.05 72.28 72.80 74.64 74.46 73.59 72.93 71.12 71.55 72.74 74.21 73.56 73.80 74.74 75.10 72.68 72.94 73.00 73.33 73.48 71.02 70.66 69.68 71.21 70.57
49.40 45.28 47.08 48.82 52.47 52.19 50.56 49.77 59.11 61.02 61.21 61.89 62.56 65.61 66.16 65.94 67.05 68.50 70.19 71.26 72.96 74.89 73.93 74.15 74.16 71.66 72.06 73.04 73.78 73.46 73.19 73.76 72.60 73.04 74.12 73.81 73.33 73.07 73.40 72.01 72.58 74.89 73.55 73.14 72.13 70.96 71.64 69.95 69.98
48.50 47.32 48.27 48.57 51.49 52.09 51.38 53.84 58.57 60.20 60.82 61.53 62.56 63.68 63.70 63.86 64.54 67.09 68.58 69.81 71.24 71.31 74.77 74.92 74.96 75.87 74.59 72.11 73.58 72.92 72.00 73.38 73.74 73.37 72.14 74.31 73.07 73.13 72.27 72.96 72.41 76.13 73.04 72.74 71.83 72.43 71.53 70.50 68.82
52.29 50.90 49.94 51.22 55.15 53.17 52.90 53.49 56.87 58.62 59.59 60.27 61.71 61.59 61.57 62.19 64.17 66.03 66.98 68.51 69.61 71.70 69.48 73.81 73.72 75.70 75.43 72.03 70.38 70.98 69.83 70.94 72.29 71.70 73.95 74.55 73.26 72.99 73.65 71.57 72.38 73.79 72.55 71.98 74.32 73.37 72.50 70.05 69.16
50.88 49.68 49.36 52.04 54.82 53.28 52.08 52.69 56.91 57.79 58.46 59.82 59.68 59.50 59.74 60.47 61.90 63.96 65.63 66.48 67.66 69.44 70.29 68.49 72.51 72.89 74.44 72.85 72.72 71.38 71.31 70.33 70.65 71.65 71.61 73.26 72.94 72.70 72.30 72.60 71.36 72.78 72.38 73.17 73.76 72.48 70.59 71.04 69.49
49.17 48.26 48.32 47.95 52.04 53.93 51.97 50.05 54.37 57.20 58.42 59.45 59.16 58.74 58.65 58.34 59.46 61.69 64.21 65.19 66.80 66.94 68.30 68.65 72.52 73.37 73.06 72.56 71.99 71.79 71.98 70.71 70.03 70.20 70.50 72.43 72.71 73.04 72.99 72.19 71.86 72.65 73.26 71.26 71.77 72.02 70.59 68.78 69.93
46.17 48.83 47.31 47.21 46.72 43.51 49.63 42.00 53.02 54.55 54.72 56.36 56.92 57.12 56.96 57.48 58.92 60.85 61.91 62.61 63.08 63.55 65.81 66.69 66.77 64.97 64.94 64.89 67.85 68.06 67.90 67.70 69.19 70.68 71.69 72.19 70.69 71.68 71.96 71.91 72.85 72.24 72.06 71.34 70.91 71.49 70.90 69.34 67.67
46.52 47.93 46.68 45.99 44.26 44.08 44.06 42.21 50.98 53.03 52.36 53.65 56.01 56.86 57.56 57.76 58.13 59.10 60.22 60.59 61.38 62.37 62.09 62.94 64.13 63.29 62.22 61.48 61.97 62.15 62.95 66.38 66.34 63.91 63.58 65.61 70.36 70.89 71.17 72.13 72.36 71.90 72.13 70.98 70.51 69.93 70.12 69.90 68.38
48.92 46.19 46.06 46.45 44.59 39.24 43.58 43.06 47.58 50.69 52.04 53.15 55.52 56.14 57.50 58.14 57.41 58.40 60.27 60.87 60.43 60.91 60.67 60.50 60.09 60.08 60.25 61.42 60.02 59.64 60.03 60.21 62.18 61.86 61.59 61.70 65.35 66.95 67.07 68.61 69.53 70.28 70.33 69.76 68.98 69.02 69.32 69.09 69.45
47.62 45.32 39.60 39.30 39.41 39.32 47.18 43.50 49.43 53.64 54.08 54.04 54.87 55.11 56.25 57.83 57.38 56.34 57.34 58.68 58.97 59.41 60.42 60.53 60.49 59.06 59.22 58.13 58.36 57.84 57.47 58.36 58.38 58.81 61.58 62.53 63.69 64.62 65.53 63.84 64.46 63.20 62.11 61.59 64.35 65.83 66.17 67.34 67.83
46.17 46.30 40.16 34.89 36.40 39.89 47.58 43.99 48.76 56.51 57.56 57.43 56.49 56.10 56.07 55.93 57.24 55.84 56.65 57.55 57.86 58.36 58.89 59.14 59.46 58.82 58.62 57.81 57.77 57.99 57.37 56.70 56.36 55.61 55.69 55.63 54.75 55.03 57.32 59.08 59.29 59.02 58.34 59.28 60.34 60.77 61.05 61.83 61.43
44.35 42.54 47.52 43.38 44.07 39.79 41.66 48.65 53.49 54.92 54.45 54.89 54.70 54.87 54.16 55.05 56.64 55.80 55.88 56.81 57.71 58.37 58.82 58.50 57.59 57.01 56.95 56.66 56.45 55.65 55.19 54.84 53.91 54.47 54.10 52.30 52.04 52.62 52.44 52.14 50.66 51.93 52.31 53.34 55.08 55.15 56.66 57.56 58.36
46.52 47.94 41.70 43.84 36.48 35.14 40.14 42.22 45.25 50.20 51.54 52.60 52.71 53.00 53.50 54.75 56.72 56.33 55.88 55.87 56.78 57.60 58.31 58.95 58.49 57.10 56.84 56.77 56.30 55.06 54.90 55.14 54.87 53.67 53.08 52.62 52.36 50.88 50.47 50.05 50.23 50.39 50.37 50.97 51.04 51.09 51.97 52.03 52.54
45.51 45.15 46.39 44.66 42.27 37.19 36.19 41.34 53.18 51.71 52.54 52.60 53.59 53.26 53.05 53.37 54.65 56.43 56.90 56.77 56.88 56.72 56.83 56.65 56.70 56.30 55.83 55.70 55.36 54.92 54.14 54.10 53.27 52.55 51.44 51.12 51.40 50.80 50.03 49.76 49.12 49.09 49.70 49.70 49.96 49.80 49.63 49.69 50.18
48.57 46.93 46.16 41.34 41.18 43.67 42.35 41.72 52.84 54.03 54.01 54.72 53.65 52.59 52.71 53.28 54.12 55.49 56.50 56.75 56.88 55.93 56.70 55.69 56.09 55.55 54.74 53.20 52.99 52.40 52.01 52.27 51.64 51.01 50.85 51.16 49.75 49.71 49.10 48.89 48.59 48.50 48.47 48.87 48.62 47.70 48.34 48.22 48.31
MSLP
1009.04 1008.97 1008.70 1007.45 1006.39 1003.59 1001.56 1000.63 1000.09 999.88 1000.42 1000.19 1000.07 1000.21 1000.79 1001.64 1002.80 1004.93 1005.87 1006.32 1008.19 1009.75 1011.08 1011.69 1012.36 1012.82 1013.37 1013.82 1014.36 1014.75 1015.13 1015.48 1015.73 1016.06 1016.41 1016.67 1016.89 1017.10 1017.33 1017.47 1017.68 1017.84 1018.02 1018.15 1018.23 1018.31 1018.39 1018.49 1018.56
1008.37 1008.23 1007.82 1006.24 1004.81 1002.65 1000.60 1001.46 999.90 999.59 1000.09 1000.15 1000.59 1000.53 1000.94 1002.37 1003.66 1004.88 1005.83 1006.55 1008.19 1009.89 1011.16 1011.89 1012.56 1013.07 1013.55 1014.13 1014.62 1014.98 1015.34 1015.69 1016.03 1016.33 1016.56 1016.85 1017.08 1017.24 1017.54 1017.65 1017.82 1018.02 1018.20 1018.29 1018.37 1018.42 1018.56 1018.69 1018.73
1008.38 1007.21 1006.63 1005.06 1003.52 1001.63 999.97 999.67 998.62 998.97 999.42 1000.12 1000.60 1001.01 1001.73 1003.16 1004.10 1004.86 1005.70 1006.78 1008.42 1010.02 1011.02 1012.21 1012.78 1013.34 1013.77 1014.24 1014.83 1015.21 1015.50 1015.89 1016.25 1016.50 1016.74 1017.06 1017.40 1017.54 1017.77 1017.89 1018.07 1018.21 1018.35 1018.48 1018.51 1018.55 1018.67 1018.79 1018.82
1007.97 1007.20 1006.16 1004.45 1002.58 1000.38 998.88 998.57 998.66 998.71 999.24 1000.35 1001.14 1001.60 1002.67 1003.32 1004.05 1004.72 1005.93 1006.91 1008.43 1009.63 1010.84 1012.58 1013.06 1013.51 1013.98 1014.41 1014.98 1015.47 1015.74 1016.06 1016.38 1016.70 1017.01 1017.25 1017.56 1017.81 1017.94 1018.13 1018.30 1018.48 1018.51 1018.59 1018.69 1018.79 1018.91 1018.93 1018.96
1007.24 1005.48 1004.63 1003.19 1001.84 1000.07 998.58 998.24 998.67 999.04 999.68 1000.37 1001.37 1001.76 1002.55 1003.72 1004.22 1005.35 1006.06 1006.97 1008.10 1009.31 1011.23 1012.53 1013.20 1013.74 1014.18 1014.64 1015.18 1015.65 1016.08 1016.35 1016.63 1016.89 1017.24 1017.47 1017.73 1017.99 1018.04 1018.20 1018.36 1018.49 1018.58 1018.70 1018.74 1018.90 1019.06 1019.10 1019.16
1006.07 1004.98 1003.59 1002.15 1000.63 999.18 998.02 997.57 998.37 999.52 1000.06 1000.80 1001.55 1001.85 1003.23 1004.07 1004.57 1005.48 1006.14 1006.88 1007.80 1009.39 1011.08 1012.57 1013.35 1013.86 1014.37 1014.90 1015.37 1015.85 1016.19 1016.56 1016.90 1017.19 1017.45 1017.77 1017.85 1018.08 1018.14 1018.19 1018.40 1018.54 1018.63 1018.76 1018.92 1018.99 1019.14 1019.23 1019.20
1004.80 1003.85 1002.94 1001.59 999.66 998.01 997.17 997.12 998.05 998.95 999.86 1000.31 1001.23 1002.11 1003.71 1004.23 1004.97 1005.57 1006.21 1006.84 1007.73 1009.38 1010.96 1012.59 1013.40 1014.01 1014.53 1015.16 1015.58 1016.08 1016.42 1016.74 1016.97 1017.44 1017.69 1017.90 1018.06 1018.18 1018.31 1018.30 1018.42 1018.55 1018.60 1018.70 1018.85 1019.02 1019.17 1019.16 1019.19
1004.21 1003.45 1002.15 1000.94 999.62 998.00 996.91 997.06 997.97 999.04 1000.23 1000.83 1001.51 1002.45 1003.91 1004.75 1005.36 1005.75 1006.20 1006.87 1007.67 1009.07 1010.84 1012.09 1013.00 1013.76 1014.24 1015.08 1015.70 1016.18 1016.66 1016.79 1017.09 1017.53 1017.82 1018.08 1018.20 1018.24 1018.34 1018.39 1018.43 1018.52 1018.60 1018.61 1018.65 1018.82 1018.96 1018.95 1018.98
1004.03 1003.24 1001.79 1000.53 999.19 998.16 997.18 997.40 998.04 999.11 999.85 1000.47 1001.44 1002.36 1004.09 1005.20 1005.42 1005.78 1006.25 1006.74 1007.44 1008.60 1010.32 1011.56 1012.48 1013.25 1013.61 1014.32 1015.58 1016.14 1016.73 1016.92 1017.14 1017.57 1017.87 1018.11 1018.10 1018.22 1018.25 1018.18 1018.22 1018.35 1018.50 1018.39 1018.50 1018.69 1018.69 1018.73 1018.58
1003.17 1002.52 1001.52 1000.27 998.79 998.11 997.59 997.79 998.21 999.24 999.99 1000.85 1001.68 1002.84 1003.66 1004.58 1005.04 1005.44 1005.87 1006.35 1006.98 1008.05 1009.50 1010.77 1011.65 1012.59 1012.94 1013.55 1015.05 1015.84 1016.38 1016.72 1016.92 1017.19 1017.67 1017.77 1017.49 1017.60 1017.58 1017.92 1018.16 1018.20 1018.28 1018.28 1018.35 1018.41 1018.32 1018.48 1018.15
1002.59 1001.91 1001.07 999.92 999.50 998.94 999.02 998.82 999.00 999.63 1000.44 1001.33 1001.54 1002.38 1003.60 1004.46 1004.92 1004.98 1005.33 1005.78 1006.43 1007.40 1008.61 1009.82 1010.97 1011.87 1012.16 1012.78 1014.47 1015.22 1015.64 1016.12 1016.50 1016.58 1017.09 1017.28 1016.74 1016.99 1017.20 1017.88 1017.99 1018.05 1018.19 1018.03 1018.08 1017.97 1018.20 1018.07 1018.09
1001.84 1001.59 1001.03 1000.31 999.73 999.91 1000.01 1000.10 999.88 1000.03 1000.43 1000.93 1001.56 1002.07 1003.22 1003.85 1004.48 1005.12 1005.11 1005.24 1005.98 1006.81 1007.93 1009.10 1010.35 1011.37 1011.65 1012.13 1013.56 1014.30 1014.82 1015.28 1015.60 1015.97 1016.31 1016.52 1016.55 1016.63 1016.48 1016.83 1017.14 1017.33 1017.28 1017.23 1017.30 1017.03 1017.19 1018.14 1018.27
1000.95 1000.91 1000.64 1000.18 1000.17 1000.28 1000.39 1000.24 1000.31 1000.29 1000.93 1001.78 1002.21 1002.57 1002.88 1003.45 1004.18 1004.79 1005.78 1005.87 1006.46 1006.81 1007.44 1008.50 1009.71 1010.88 1011.42 1011.98 1012.66 1013.40 1013.94 1014.50 1014.60 1015.05 1015.41 1015.76 1015.95 1016.01 1016.03 1016.18 1016.23 1016.29 1016.35 1016.47 1016.61 1016.46 1016.75 1017.17 1018.06
1000.30 1000.32 1000.36 1000.12 999.94 1000.19 1000.44 1000.33 1000.48 1000.75 1001.67 1002.15 1002.59 1002.80 1002.84 1003.45 1004.04 1005.05 1006.17 1006.76 1006.92 1007.96 1007.47 1008.42 1009.37 1010.46 1011.08 1011.48 1012.17 1012.73 1013.14 1013.53 1013.78 1014.06 1014.54 1014.98 1015.27 1015.47 1015.83 1015.85 1015.54 1015.70 1015.59 1015.63 1015.80 1016.33 1016.91 1017.18 1017.32
1000.18 1000.12 1000.20 999.90 999.70 999.89 1000.18 1000.48 1000.32 1001.19 1001.78 1002.74 1002.77 1002.65 1003.22 1003.64 1003.96 1005.09 1006.40 1007.14 1007.48 1007.53 1007.94 1008.57 1009.31 1010.29 1010.99 1011.35 1011.82 1012.15 1012.56 1012.63 1013.01 1013.28 1013.65 1014.25 1014.80 1015.22 1015.41 1015.48 1015.57 1015.32 1015.23 1015.68 1015.72 1016.05 1016.51 1016.95 1016.96
1000.27 1000.15 999.64 998.97 999.36 999.70 1000.24 1000.29 1000.86 1001.67 1002.17 1003.25 1003.46 1003.77 1004.54 1005.93 1006.32 1006.07 1006.69 1007.64 1007.80 1007.97 1008.36 1008.75 1009.39 1010.30 1010.86 1011.44 1011.69 1011.93 1012.10 1012.36 1012.51 1012.62 1012.99 1013.71 1014.24 1014.78 1015.27 1015.52 1015.44 1015.24 1015.25 1015.24 1015.66 1016.57 1016.19 1016.82 1017.06
999.86 999.25 998.73 998.27 998.99 999.45 1000.29 1000.70 1001.74 1002.30 1002.82 1003.72 1004.39 1005.20 1006.28 1007.62 1008.41 1008.61 1008.53 1008.35 1008.49 1008.40 1008.69 1009.17 1009.57 1009.99 1010.87 1011.38 1011.68 1011.89 1011.89 1012.08 1012.19 1012.30 1012.65 1013.31 1013.64 1014.19 1015.02 1015.22 1015.25 1014.97 1015.08 1015.19 1015.46 1016.15 1016.30 1016.98 1017.32
998.43 998.02 997.53 997.77 999.03 999.79 1000.06 1001.04 1002.24 1002.79 1003.57 1004.55 1005.41 1006.97 1007.96 1008.69 1009.37 1009.61 1009.58 1009.59 1009.60 1009.68 1009.26 1009.64 1010.00 1010.26 1010.84 1011.32 1011.82 1012.02 1012.04 1011.92 1011.91 1012.11 1012.27 1012.74 1013.22 1013.63 1014.25 1014.84 1015.07 1014.84 1015.01 1015.24 1015.52 1016.00 1016.35 1016.72 1017.18
998.96 998.30 997.97 998.08 999.08 1000.01 1000.03 1000.49 1002.16 1003.24 1004.05 1005.39 1006.37 1007.66 1008.78 1009.59 1009.92 1010.08 1010.45 1010.50 1010.50 1010.46 1010.46 1010.11 1010.32 1010.67 1011.10 1011.61 1011.71 1012.03 1012.04 1012.15 1011.95 1011.85 1011.95 1012.06 1012.56 1013.16 1013.84 1014.44 1014.81 1014.69 1014.90 1015.19 1015.54 1015.93 1016.44 1016.92 1017.62
999.76 999.31 999.02 998.74 999.28 1000.18 1000.57 1000.69 1002.01 1003.28 1004.11 1005.55 1007.26 1008.59 1009.49 1010.12 1010.41 1010.62 1011.09 1011.45 1011.46 1011.33 1011.25 1011.11 1010.56 1010.77 1011.30 1011.70 1011.92 1012.01 1012.20 1012.23 1012.24 1011.94 1011.79 1011.86 1012.43 1012.86 1013.43 1014.01 1014.52 1014.61 1014.78 1015.04 1015.48 1015.98 1016.32 1016.84 1017.63
1000.21 1000.10 999.82 999.71 999.67 1000.43 1000.95 1001.20 1002.46 1003.83 1005.31 1006.50 1007.96 1009.21 1009.95 1010.56 1010.80 1011.08 1011.48 1011.96 1012.08 1012.19 1012.20 1012.14 1011.24 1011.57 1011.88 1011.97 1012.09 1012.31 1012.48 1012.58 1012.41 1012.13 1011.87 1012.02 1012.11 1012.58 1013.10 1013.67 1014.14 1014.47 1014.68 1014.90 1015.33 1015.94 1016.46 1016.84 1017.11
1001.05 1001.10 1001.06 1000.88 1000.71 1000.48 1000.67 1000.76 1001.64 1003.95 1005.98 1007.28 1008.37 1009.16 1010.04 1010.60 1011.15 1011.58 1012.21 1012.73 1012.98 1013.25 1013.12 1013.10 1013.19 1013.39 1013.54 1013.37 1013.39 1013.19 1013.21 1013.24 1012.89 1012.71 1012.26 1012.08 1012.24 1012.74 1013.05 1013.37 1013.77 1014.37 1014.77 1015.01 1015.38 1015.72 1016.31 1016.74 1017.30
1001.97 1002.03 1002.08 1001.96 1001.66 1001.41 1001.11 1001.22 1002.30 1003.79 1005.53 1006.99 1008.11 1008.85 1010.05 1011.02 1011.65 1012.21 1012.85 1013.51 1013.67 1013.73 1013.86 1014.02 1014.08 1014.15 1014.33 1014.52 1014.55 1014.52 1014.57 1014.26 1014.36 1014.05 1014.86 1014.98 1013.40 1013.38 1013.60 1013.28 1013.51 1014.17 1014.49 1015.07 1015.47 1015.73 1016.07 1016.40 1016.86
1002.41 1002.59 1002.22 1001.80 1001.51 1000.97 1000.70 1000.99 1001.99 1003.55 1005.04 1006.74 1007.61 1008.41 1009.28 1010.22 1011.82 1012.49 1013.05 1013.65 1014.00 1014.14 1014.32 1014.56 1014.68 1014.90 1014.98 1015.01 1015.07 1015.09 1015.12 1014.92 1014.17 1013.56 1013.07 1015.56 1015.75 1014.91 1015.04 1014.26 1013.97 1013.91 1014.42 1014.86 1014.92 1015.15 1015.54 1015.96 1016.26
1002.33 1002.58 1001.89 1001.13 1000.58 999.72 999.33 999.89 1001.00 1003.34 1005.14 1006.22 1007.89 1008.01 1008.59 1009.44 1011.60 1012.69 1013.44 1013.85 1014.30 1014.46 1014.41 1014.54 1014.86 1015.23 1015.45 1015.50 1015.51 1015.62 1015.79 1016.00 1016.08 1015.72 1016.21 1015.26 1015.27 1014.97 1014.28 1014.54 1014.82 1014.78 1014.66 1014.87 1015.45 1015.33 1015.81 1015.91 1015.76
1002.23 1002.21 1002.28 1001.62 1000.94 999.98 1000.67 1000.70 1001.80 1002.64 1004.57 1005.61 1006.49 1007.19 1008.11 1009.48 1011.47 1013.06 1014.05 1014.46 1014.71 1014.90 1014.99 1015.03 1015.17 1015.34 1015.59 1015.83 1015.94 1016.12 1016.27 1016.41 1016.46 1016.81 1016.76 1016.48 1016.60 1016.00 1015.59 1015.36 1015.48 1015.78 1015.81 1015.49 1015.42 1016.18 1015.90 1016.56 1016.82
1002.29 1002.49 1002.61 1002.59 1002.36 1001.55 1000.86 1001.60 1002.85 1004.04 1004.98 1005.85 1006.52 1007.05 1008.35 1009.49 1011.30 1013.01 1014.19 1014.66 1014.90 1015.04 1015.20 1015.48 1015.72 1015.94 1016.12 1016.30 1016.40 1016.50 1016.72 1016.75 1016.98 1016.94 1016.97 1017.11 1017.32 1017.25 1016.85 1016.53 1016.27 1016.51 1016.61 1016.49 1016.56 1016.29 1016.80 1016.65 1017.01
1003.12 1003.28 1003.29 1002.98 1002.86 1002.16 1001.32 1001.01 1002.35 1004.39 1005.03 1005.74 1006.41 1007.07 1008.50 1009.33 1010.95 1012.57 1013.87 1014.73 1015.11 1015.35 1015.47 1015.61 1015.87 1016.08 1016.31 1016.48 1016.56 1016.73 1016.98 1017.19 1017.28 1017.33 1017.70 1017.83 1017.77 1017.56 1017.43 1017.44 1017.32 1017.51 1017.34 1017.22 1017.16 1017.36 1017.55 1017.23 1017.08
1002.83 1003.35 1003.52 1003.80 1003.70 1003.11 1002.48 1002.35 1003.01 1003.86 1004.19 1005.09 1006.05 1007.07 1008.45 1009.12 1009.89 1011.19 1012.70 1014.02 1014.66 1015.18 1015.43 1015.84 1015.98 1016.09 1016.33 1016.63 1016.88 1017.04 1017.19 1017.34 1017.58 1017.82 1017.88 1017.95 1018.12 1018.11 1017.97 1017.89 1017.79 1018.23 1017.93 1017.69 1018.00 1017.90 1018.11 1018.24 1017.89
1002.42 1003.10 1003.53 1003.73 1003.68 1003.45 1003.30 1002.92 1002.74 1003.41 1004.06 1005.03 1006.18 1007.12 1008.07 1008.82 1009.60 1010.51 1011.70 1012.94 1013.72 1014.52 1014.82 1015.61 1015.95 1016.05 1016.51 1017.03 1017.32 1017.55 1017.57 1017.62 1017.79 1017.94 1018.05 1018.12 1018.29 1018.41 1018.47 1018.65 1018.75 1018.74 1018.66 1018.49 1018.23 1018.20 1018.64 1018.53 1018.55
Wind_Speed
7 9 8 9 9 9 18 8 8 20 11 11 10 12 10 19 13 10 13 14 26 21 18 18 17 13 17 17 16 16 15 14 14 13 12 12 11 11 11 11 12 12 13 13 14 14 13 13 12
12 13 9 9 12 14 13 21 20 19 14 5 8 3 8 18 15 16 13 19 24 20 15 17 16 13 18 18 17 16 15 14 14 13 13 12 11 11 10 10 11 11 12 12 12 13 12 11 9
15 16 10 10 13 16 11 8 7 8 11 7 2 2 17 11 14 11 18 22 22 20 17 15 17 13 16 19 17 15 15 14 13 13 13 12 11 11 10 10 10 10 11 11 11 11 10 9 7
7 8 11 14 21 24 20 7 11 4 13 9 3 8 12 10 7 12 18 23 20 20 21 19 17 14 15 17 17 14 15 14 14 13 12 12 10 10 10 10 9 9 10 10 9 9 8 7 6
12 9 10 15 21 23 19 11 6 6 8 9 2 7 12 11 18 16 17 18 19 19 21 18 18 15 14 15 17 14 14 13 13 13 12 11 10 9 9 9 9 8 8 8 8 8 8 6 4
10 12 13 15 19 21 16 8 11 6 3 6 2 3 11 11 16 17 16 17 19 22 19 18 18 17 15 14 15 14 14 13 12 11 11 9 9 9 9 9 8 7 7 7 7 7 6 6 5
17 13 16 20 20 18 14 8 4 9 11 10 3 8 12 14 14 16 15 16 19 22 20 15 15 15 16 13 14 14 13 13 12 11 10 9 9 8 7 7 7 6 6 6 6 6 6 7 6
15 13 21 18 15 19 9 8 8 7 14 15 4 10 6 14 14 14 15 14 17 20 19 17 15 15 15 13 14 13 12 13 12 11 10 9 8 7 7 6 6 6 6 6 7 7 7 8 8
17 14 15 19 19 15 15 2 9 6 6 8 10 13 20 16 15 13 13 14 15 17 19 17 17 16 15 16 13 13 14 13 12 11 10 8 6 7 10 7 10 7 6 7 7 7 9 10 10
17 14 19 21 18 10 11 3 4 4 9 7 11 13 17 17 14 15 15 13 16 17 19 17 18 16 15 13 14 11 11 9 8 9 9 7 9 9 10 9 8 7 7 7 8 10 11 8 6
18 15 18 20 11 8 12 12 6 7 5 7 4 14 13 17 12 14 15 17 17 18 15 19 16 16 16 14 11 7 7 7 7 10 10 10 8 7 7 5 5 5 7 5 7 8 6 8 6
16 20 19 19 14 2 9 13 12 5 7 1 3 3 16 16 15 11 7 13 16 18 17 18 18 15 14 12 11 10 9 8 8 9 10 7 5 7 6 7 8 7 6 8 7 6 7 7 4
17 15 16 14 10 12 10 11 11 10 10 8 4 3 7 14 10 12 6 9 7 10 16 16 18 14 9 13 12 11 10 10 11 11 12 8 7 5 4 5 8 9 9 8 8 6 6 7 10
12 14 12 19 12 11 10 10 7 5 8 2 3 10 15 8 14 13 9 7 7 9 13 12 17 13 13 7 12 11 10 12 10 10 12 12 5 3 5 5 4 4 7 6 5 5 5 7 7
12 8 11 14 11 8 9 10 12 12 9 5 7 4 12 8 11 13 12 6 6 3 6 8 9 14 9 6 6 9 9 8 9 9 11 13 8 6 6 4 4 4 3 6 4 9 9 5 0
11 13 15 18 18 12 7 13 11 7 4 10 4 4 13 21 21 12 8 10 5 6 6 6 10 14 11 5 5 5 6 9 8 6 8 13 10 7 4 4 4 5 4 3 2 3 3 2 3
14 13 18 5 12 10 10 8 9 3 5 9 6 17 16 14 13 12 13 10 2 3 7 7 7 11 15 9 5 7 8 4 6 6 5 12 12 10 5 5 6 6 4 3 2 4 3 4 2
9 16 15 11 12 6 10 10 9 7 9 8 7 15 10 8 8 7 8 9 9 10 5 6 5 5 8 10 6 6 7 5 5 5 8 12 10 11 9 5 8 4 3 3 2 2 3 3 5
13 9 10 9 12 1 11 15 14 8 11 11 9 11 9 7 6 6 9 8 8 6 8 5 9 5 3 7 9 8 8 6 7 8 7 8 12 11 7 8 7 5 5 5 2 3 2 2 7
11 10 10 6 11 6 10 8 16 12 11 13 12 10 9 8 6 7 8 8 4 5 6 12 5 8 6 5 5 7 6 8 8 8 10 7 11 11 10 9 9 7 5 5 3 4 3 3 7
8 10 13 15 5 8 9 13 13 13 11 12 13 11 10 8 8 9 10 10 10 12 12 13 7 4 6 8 4 6 7 7 9 8 7 6 7 9 9 10 8 6 5 6 5 5 5 3 3
8 10 13 12 12 11 12 13 22 21 15 12 14 13 12 11 8 10 10 11 11 11 10 11 10 11 10 12 9 11 6 10 10 6 3 2 4 2 7 7 6 6 3 5 5 5 5 6 5
8 12 10 13 14 15 18 13 11 15 17 16 13 13 12 12 9 10 11 11 10 10 10 10 11 11 9 9 7 3 5 7 3 8 17 18 6 4 5 2 4 5 4 5 6 5 7 6 7
8 10 15 15 13 13 18 16 18 21 20 17 16 14 15 17 11 9 9 10 9 9 10 10 11 11 11 10 9 8 7 8 7 2 11 14 10 6 8 9 6 3 3 4 6 5 8 9 6
8 10 10 12 12 14 19 19 12 24 23 20 17 15 11 14 13 9 6 8 10 10 10 9 10 10 10 11 11 11 11 8 6 8 4 11 8 5 8 4 1 1 3 4 1 1 3 4 9
11 8 8 16 14 14 6 2 9 21 24 23 15 14 13 10 14 9 5 4 5 6 7 9 10 10 11 11 10 9 10 6 6 7 6 4 4 6 6 3 4 3 4 3 3 1 2 2 4
5 9 10 8 15 15 15 10 15 16 16 16 15 13 11 10 15 10 5 3 3 4 5 6 6 7 7 7 7 9 8 9 8 8 6 5 5 5 6 7 8 7 7 6 6 3 1 3 2
8 12 8 8 10 15 14 17 12 16 15 13 11 10 10 10 16 12 8 3 1 2 3 4 5 5 5 7 7 6 6 7 6 7 7 6 5 5 5 6 5 4 4 5 5 3 4 4 4
8 11 10 11 9 11 13 2 16 15 14 13 10 10 10 8 10 12 12 10 9 4 4 1 1 2 3 6 6 6 7 6 7 7 6 5 5 5 5 5 5 3 3 4 4 5 4 5 6
6 10 14 9 10 11 12 9 9 10 11 9 8 9 8 6 9 10 11 9 8 4 4 3 1 3 4 5 5 5 6 6 7 6 5 5 6 5 5 4 4 4 4 3 4 7 5 6 6
Wind_Direction
181 211 229 259 256 243 264 248 331 59 47 23 44 25 34 49 26 95 124 135 119 130 133 134 136 140 129 129 131 132 131 129 125 127 127 124 117 112 111 113 114 114 114 113 110 107 103 100 99
214 212 232 274 255 278 280 50 295 89 102 78 74 54 79 73 80 118 132 124 121 130 142 135 138 138 136 131 132 134 133 130 130 134 132 125 125 121 121 119 119 116 117 118 118 115 110 111 116
248 223 245 235 244 253 276 285 62 65 105 86 34 24 58 98 105 123 122 125 122 132 142 132 138 139 137 133 135 138 134 133 136 136 128 130 129 128 127 121 121 123 123 124 125 121 127 128 139
213 232 237 255 259 264 257 163 80 228 114 103 15 52 93 88 123 111 136 127 135 139 128 138 139 140 137 135 137 140 139 138 137 131 133 133 134 129 122 121 122 125 128 132 129 125 129 136 159
231 235 226 235 240 264 282 116 94 334 82 123 53 64 102 99 104 126 140 134 141 141 126 141 141 143 138 138 139 143 141 139 139 134 136 139 135 130 125 123 126 133 137 141 141 137 141 151 180
210 233 236 238 250 250 249 163 141 175 320 99 187 180 92 121 120 135 149 143 141 124 138 142 143 144 145 145 144 145 143 141 136 137 141 143 141 141 137 136 140 145 149 153 148 150 155 161 198
220 214 233 250 267 261 218 157 170 174 194 192 198 125 128 122 124 138 154 147 138 129 132 145 149 147 144 147 144 144 144 143 140 143 145 150 150 150 150 148 155 162 163 164 160 172 176 184 209
227 246 248 240 259 275 296 137 143 228 78 75 67 78 103 98 128 143 154 154 144 136 138 152 152 156 154 155 150 148 150 144 140 144 150 157 161 161 167 167 177 179 188 186 181 190 194 195 202
225 247 247 253 260 263 268 206 147 184 225 171 153 99 122 135 142 152 150 168 153 146 143 158 160 162 165 156 158 151 158 150 147 153 160 164 192 186 171 189 155 176 204 197 199 201 208 213 207
225 227 248 254 261 318 353 344 137 184 163 262 124 120 137 150 166 166 169 172 167 160 152 163 166 164 173 156 150 170 170 174 177 176 171 207 218 184 191 158 163 178 206 222 222 226 226 222 224
216 247 246 246 359 354 336 327 332 177 186 253 228 146 158 155 174 190 183 176 180 169 156 163 168 162 176 154 152 173 169 180 187 184 173 216 222 171 143 153 174 188 213 218 212 231 222 214 247
218 232 246 270 301 287 268 276 282 283 276 200 192 27 148 169 174 196 249 196 172 166 165 160 162 165 180 148 157 178 179 185 180 193 180 217 226 193 179 175 182 196 182 219 198 219 210 106 103
225 244 246 272 257 275 260 258 250 237 74 56 0 328 258 166 177 174 170 282 68 171 166 166 155 162 200 152 162 176 190 189 187 185 179 207 236 166 181 243 190 196 185 208 201 230 150 170 147
232 238 248 252 235 225 236 253 230 144 88 76 215 240 225 205 157 136 158 216 134 218 154 171 157 159 200 171 168 177 193 185 191 184 181 194 213 201 195 236 241 220 178 211 198 126 76 303 119
270 254 261 248 233 234 209 250 224 109 98 72 254 114 60 91 161 143 151 179 179 232 149 138 155 156 185 197 160 177 189 202 201 187 178 185 193 197 202 231 245 260 282 38 268 138 160 223 194
250 238 249 229 209 212 217 245 105 99 123 116 347 141 97 53 32 89 114 155 218 214 142 162 185 158 179 220 185 207 212 212 193 208 164 175 182 187 211 248 234 208 262 184 111 340 109 302 345
215 235 221 142 144 227 182 215 107 145 110 105 128 58 68 69 50 26 21 0 19 243 172 173 205 190 179 201 202 217 218 232 225 196 169 178 181 186 205 222 260 198 225 220 226 153 151 162 257
272 218 222 167 150 236 191 145 137 133 134 124 123 88 71 49 51 33 23 6 349 10 256 197 234 222 173 190 209 228 234 224 220 228 206 172 184 188 180 221 237 263 190 208 198 208 174 179 180
322 357 354 153 121 44 278 158 142 143 133 138 124 81 76 84 52 54 34 354 348 15 17 268 198 248 216 194 203 218 224 239 231 223 238 188 183 187 180 202 246 229 202 194 178 187 181 248 101
318 312 294 284 132 179 272 214 145 162 142 139 127 125 117 100 79 64 47 29 356 319 33 6 239 191 220 235 210 220 226 232 249 216 232 199 180 185 187 196 214 235 200 173 189 213 176 179 149
289 299 320 318 300 163 252 269 145 141 120 104 97 104 100 94 80 62 54 46 39 37 25 16 337 285 245 257 251 220 240 241 254 251 214 211 189 185 191 194 211 226 242 187 189 173 217 180 229
282 325 328 309 308 276 255 249 176 143 143 152 154 143 130 107 77 70 54 45 34 28 27 35 31 39 27 25 353 300 263 249 249 270 266 75 58 197 173 191 184 222 185 266 199 180 195 201 212
302 304 307 286 273 271 261 259 125 135 164 163 148 134 128 101 75 65 62 50 46 43 41 31 40 37 39 30 41 7 335 322 354 35 356 344 353 323 306 205 193 189 183 196 222 205 196 203 215
298 287 264 252 247 249 246 248 176 177 176 143 153 150 146 130 102 76 85 86 62 53 57 52 47 42 36 36 29 9 0 7 11 248 307 289 305 331 295 306 261 239 207 222 207 169 200 203 214
209 261 268 254 227 239 241 225 121 129 126 142 188 152 136 122 113 91 63 52 48 36 35 41 45 49 41 33 27 21 19 22 6 14 299 228 239 238 219 236 345 120 126 113 344 116 261 228 215
306 296 298 305 301 312 14 156 134 130 163 171 151 136 124 110 109 98 78 72 74 67 40 34 34 32 27 32 30 28 23 31 24 32 13 350 343 359 5 44 26 18 25 36 133 169 140 276 312
330 237 293 300 284 285 286 115 121 133 142 151 151 141 125 126 120 129 140 137 75 46 46 43 35 35 41 41 30 29 27 24 34 23 39 29 17 3 3 18 34 45 32 39 20 64 59 77 27
247 289 293 234 262 264 266 273 136 157 164 169 147 143 127 135 131 141 154 148 162 10 357 32 30 35 37 35 33 32 35 42 35 28 55 40 42 42 40 40 43 33 47 51 78 58 24 101 108
196 230 228 255 285 300 299 25 139 167 170 164 170 137 145 156 139 142 144 164 165 194 154 342 31 21 28 45 36 36 40 43 47 52 55 49 65 56 42 50 50 25 66 74 76 83 76 77 59
284 316 309 291 268 249 272 287 84 130 123 118 160 147 158 146 155 149 144 152 140 159 115 105 89 43 49 61 57 56 60 57 63 72 76 82 80 75 84 80 77 69 66 64 91 84 73 87 87